Location: Erfurt
(50.9688°N, 11.0193°E)
Time: 22:21:20
(UTC+01:00)

ISS - Pass Details

Date: 14 November 2017
Orbit: 401 x 407 km, 51.6° (Epoch: 18 November)

Event Time Altitude Azimuth Distance (km) Brightness Sun altitude
Exits shadow 04:12:52 11° 98° (E) 1,403 -0.3 -30.9°
Drops below altitude 10° 04:12:59 10° 98° (E) 1,448 -0.2 -30.9°
Sets 04:15:04 0° 99° (E) 2,314 1.0 -30.6°
